Location: Bazugues
(43.4465°N, 0.3432°E)
Time: 20:04:13
(UTC+00:00)

DNEPR-1 R/B - Pass Details

Date: 12 January 2026
Orbit: 586 x 1327 km, 64.6° (Epoch: 13 February)

Event Time Altitude Azimuth Distance (km) Brightness Sun altitude
Rises 18:03:27 0° 192° (SSW) 3,066 7.5 -14.0°
Reaches altitude 10° 18:06:01 10° 184° (S) 2,067 6.5 -14.5°
Maximum altitude 18:10:11 36° 118° (ESE) 978 4.2 -15.2°
Enters shadow 18:11:41 27° 77° (ENE) 1,156 4.3 -15.4°
